{"data":{"norad_id":59573,"intl_designator":"2024-076K","name":"STARLINK-31683","alt_names":[],"object_type":"PAYLOAD","status":"ACTIVE","operator":null,"country":"US","launch_date":"2024-04-23","launch_site_code":"AFETR","launch_vehicle":null,"mission":null,"orbit_class":"UNKNOWN","rcs_meters":null,"size_class":null,"mass_kg":null,"dimensions":null,"purposes":["comms"],"wikipedia_slug":null,"has_3d_model":false,"image_url":null,"decayed_at":null,"tle_current":{"epoch":"2026-05-25T02:57:45.037152Z","epoch_age_seconds":67518,"freshness":"FRESH","line1":"1 59573U 24076K   26145.12343793  .00000842  00000+0  40101-4 0  9991","line2":"2 59573  42.9998 297.2187 0001149 276.6297  83.4424 15.27575916118195","mean_motion":15.27575916,"eccentricity":0.0001149,"inclination_deg":42.9998,"raan_deg":297.2187,"arg_perigee_deg":276.6297,"mean_anomaly_deg":83.4424,"bstar":4.0101e-5,"rev_number":11819,"period_min":94.267000737396,"perigee_km":482.27297334456,"apogee_km":483.84967671966,"semimajor_km":6861.1983250321,"source":"CELESTRAK","updated_at":"2026-05-25T13:38:18.986382Z"}}}